Showing default

CONNECTA IOT-7, 62715

Orbit data source: Space-Track

CONNECTA IOT-7, 62715 is a payload satellite owned by Plan-S (TR) in SSO that was launched on Tue, 14 Jan 2025 UTC via an FALCON 9 launch vehicle from the Air Force Western Test Range (AFWTR). Payload-class satellites include a variety of spacecraft equipped with specific instruments for various scientific and technological missions. These include communications satellites like Starlink; space stations such as the ISS; scientific satellites like the Hubble; Earth observation satellites from companies like Planet Labs, Umbra, and HawkEye 360; GPS; miniature CubeSats for education and research; and military/defense satellites.

Loading next visibility...
Identifier
62715, 2025-009DL
Orbit
SSO
Country
Flag of TRTR / TURK
Related business
Manufacturer
Plan-S
Mission
Operational Commercial Communications
Bus & Motor
CUBESAT 6U, Unknown motor
Mass
10 kg wet, 10 kg dry
Launch date (UTC)
2025-01-14 (1 year ago)
Launch vehicle
FALCON 9
Launch site
Air Force Western Test Range (AFWTR)
Object type
Payload
Rocket body
Debris
Shape & HBR
Box, 2.2 m
Radar Cross Section
0.080 m², Medium (>0.1 m² and < 1m²)

Expand to show TLE details & history
Last TLE update: 21 hours ago

TLE from 21 hours ago
0 CONNECTA IOT-7
1 62715U 25009DL  26067.77847435  .00001835  00000-0  17762-3 0  9996
2 62715  97.7132 148.3836 0002264 129.2445 230.8977 14.93959791 62355
Epoch: 2026-03-08T18:41Z
TLE epoch observation values (Epoch: 2026-03-08T18:41:00.183Z)
Latitude
0.00003°
Longitude
61.65195°
Altitude
589.644 km
Speed
7.565 km/s
True Right ascension
09h 53m 32s
True Declination
0° 00' 00"
Sunlit
Object was in full shadow at epoch
Visualization orbit readout
Latitude
Unknown
Longitude
Unknown
Altitude
Unknown
Speed
Unknown
Apparent Right ascension
Unknown
Apparent Declination
Unknown
Sunlit
N/A
Visualization observer readout
Local Sidereal Time
19:48:24
Azimuth
Unknown
Elevation
Unknown
Doppler factor
Unknown
Orbital elements
Apogee altitude
584.193 km
Perigee altitude
581.041 km
Semi-major axis
6,960.754 km
Eccentricity
0.00023
Inclination
97.7132°
RAAN
148.3836°
Arg. of periapsis
129.2445°
True anomaly
230.87757°
Mean anomaly
230.8977°
Eccentric anomaly
230.88764°
Mean motion
3.73731 °/min
Orbital period
96.33 mins
BSTAR
0.00017762
Loading maneuver chart data...
Computing Atmospheric mass density...
Loading historical data...
Loading historical data...
Loading historical data...
Loading historical data...
Loading historical data...
Loading historical data...
Loading historical data...

Documentation

Showing up to 5 results
|